Fort Leonard Wood, MO

12:18 PM CDT on April 24, 2017 (GMT -0500)
Waynesville Regional At Forney Field

Weather History for KTBN - December, 2011

Change the Weather History Date:

Tuesday, December 13, 2011

  Actual Average Record
Temperature  
Mean Temperature 44 °F -  
Max Temperature 50 °F 43 °F 66 °F (2015)
Min Temperature 39 °F 29 °F 2 °F (2010)
Degree Days  
Heating Degree Days 20    
Moisture  
Dew Point 42 °F    
Average Humidity 97    
Maximum Humidity 100    
Minimum Humidity 70    
Precipitation  
Precipitation 0.56 in - - ()
Sea Level Pressure  
Sea Level Pressure 30.35 in    
Wind  
Wind Speed 6 mph (South)    
Max Wind Speed 13 mph    
Max Gust Speed 22 mph    
Visibility 7 miles    
Events Rain    
Averages and records for this station are not official NWS values.
T = Trace of Precipitation, MM = Missing Value Source: NWS Daily Summary

Daily Weather History Graph

Daily Weather History Graph

Search for Another Location

Airport or City:

Trip Planner

Search our weather history database for the weather conditions in past years. The results will help you decide how hot, cold, wet, or windy it might be!

Date:

Astronomy

Dec. 13, 2011 Rise Set
Actual Time 7:15 AM CST 4:50 PM CST
Civil Twilight 6:45 AM CST 5:19 PM CST
Nautical Twilight 6:12 AM CST 5:52 PM CST
Astronomical Twilight 5:40 AM CST 6:24 PM CST
Moon 8:03 PM CST (12/13) 9:27 AM CST (12/13)
Length of Visible Light 10h 33m
Length of Day
9h 35m
Waning Gibbous, 90% of the Moon is Illuminated
Dec 13
Waning Gibbous
Dec 17
Last Quarter
Dec 24
New
Jan 1
First Quarter
Jan 9
Full

Hourly Weather History & Observations

Time (CST) Temp. Windchill Dew Point Humidity Pressure Visibility Wind Dir Wind Speed Gust Speed Precip Events Conditions
12:01 AM 42.8 °F 38.0 °F 33.8 °F 70% 30.37 in 10.0 mi South 8.1 mph - N/A   Overcast
12:20 AM 42.8 °F 39.3 °F 35.6 °F 76% 30.38 in 10.0 mi SW 5.8 mph - N/A   Light Drizzle
12:50 AM 41.0 °F 38.0 °F 37.4 °F 87% 30.38 in 10.0 mi SW 4.6 mph - N/A   Overcast
12:52 AM 41.0 °F 38.0 °F 37.4 °F 87% 30.38 in 10.0 mi SW 4.6 mph - N/A   Light Drizzle
12:55 AM 40.1 °F 36.9 °F 38.3 °F 93% 30.38 in 10.0 mi SW 4.6 mph - 0.00 in   Light Drizzle
1:09 AM 39.2 °F 37.0 °F 39.2 °F 100% 30.37 in 7.0 mi SW 3.5 mph - N/A   Light Drizzle
1:55 AM 39.4 °F - 39.2 °F 99% 30.39 in 5.0 mi Calm Calm - 0.04 in Rain Light Rain
2:32 AM 39.2 °F 35.0 °F 39.2 °F 100% 30.37 in 6.0 mi SSE 5.8 mph - N/A Rain Light Rain
2:55 AM 39.4 °F 36.1 °F 39.2 °F 99% 30.38 in 7.0 mi South 4.6 mph - 0.06 in Rain Light Rain
2:59 AM 39.2 °F 35.9 °F 39.2 °F 100% 30.37 in 7.0 mi South 4.6 mph - N/A Rain Light Rain
3:09 AM 39.2 °F 34.2 °F 39.2 °F 100% 30.36 in 8.0 mi South 6.9 mph - N/A Rain Light Rain
3:38 AM 39.2 °F 34.2 °F 39.2 °F 100% 30.35 in 7.0 mi SSE 6.9 mph - N/A Rain Light Rain
3:40 AM 39.2 °F 34.2 °F 39.2 °F 100% 30.35 in 8.0 mi SSE 6.9 mph - N/A Rain Light Rain
3:55 AM 39.6 °F 35.4 °F 39.4 °F 99% 30.35 in 9.0 mi South 5.8 mph - 0.04 in Rain Light Rain
4:22 AM 39.2 °F 35.9 °F 39.2 °F 100% 30.35 in 10.0 mi South 4.6 mph - N/A   Overcast
4:28 AM 39.2 °F 35.9 °F 39.2 °F 100% 30.35 in 10.0 mi Variable 4.6 mph - N/A   Overcast
4:55 AM 39.9 °F 36.7 °F 39.6 °F 99% 30.35 in 10.0 mi South 4.6 mph - 0.01 in   Overcast
5:09 AM 39.2 °F 35.0 °F 39.2 °F 100% 30.35 in 10.0 mi SSE 5.8 mph - N/A Rain Light Rain
5:55 AM 40.1 °F 35.3 °F 39.9 °F 99% 30.37 in 7.0 mi South 6.9 mph - 0.02 in Rain Light Rain
6:14 AM 41.0 °F 38.0 °F 39.2 °F 93% 30.36 in 6.0 mi South 4.6 mph - N/A Rain Light Rain
6:54 AM 41.0 °F 38.0 °F 39.2 °F 93% 30.36 in 5.0 mi South 4.6 mph - N/A Rain Light Rain
6:55 AM 40.3 °F 38.2 °F 40.1 °F 99% 30.36 in 5.0 mi South 3.5 mph - 0.09 in Rain Light Rain
7:00 AM 41.0 °F 39.0 °F 41.0 °F 100% 30.37 in 5.0 mi South 3.5 mph - N/A Rain Light Rain
7:03 AM 41.0 °F 38.0 °F 41.0 °F 100% 30.37 in 5.0 mi South 4.6 mph - N/A Rain Light Rain
7:15 AM 41.0 °F - 41.0 °F 100% 30.38 in 5.0 mi Calm Calm - N/A Rain Light Rain
7:39 AM 41.0 °F 39.0 °F 41.0 °F 100% 30.38 in 2.5 mi South 3.5 mph - N/A Rain Light Rain
7:42 AM 41.0 °F - 41.0 °F 100% 30.38 in 2.5 mi Calm Calm - N/A Rain Rain
7:50 AM 41.0 °F - 41.0 °F 100% 30.38 in 3.0 mi Calm Calm - N/A Rain Light Rain
7:55 AM 41.0 °F 39.0 °F 41.0 °F 100% 30.38 in 4.0 mi South 3.5 mph - 0.08 in Rain Light Rain
8:09 AM 41.0 °F 39.0 °F 41.0 °F 100% 30.38 in 2.5 mi SSE 3.5 mph - N/A Rain Light Rain
8:26 AM 41.0 °F 38.0 °F 41.0 °F 100% 30.39 in 2.5 mi SSE 4.6 mph - N/A Rain Light Rain
8:27 AM 41.0 °F 38.0 °F 41.0 °F 100% 30.39 in 2.5 mi SSE 4.6 mph - N/A Rain Light Rain
8:32 AM 41.0 °F 38.0 °F 41.0 °F 100% 30.39 in 2.5 mi SSE 4.6 mph - N/A Rain Light Rain
8:35 AM 41.0 °F 39.0 °F 41.0 °F 100% 30.39 in 3.0 mi South 3.5 mph - N/A Rain Light Rain
8:51 AM 41.0 °F 39.0 °F 41.0 °F 100% 30.40 in 6.0 mi South 3.5 mph - N/A   Overcast
8:53 AM 41.0 °F 39.0 °F 41.0 °F 100% 30.40 in 7.0 mi South 3.5 mph - N/A   Light Drizzle
8:55 AM 41.5 °F 39.6 °F 41.5 °F 100% 30.40 in 7.0 mi Variable 3.5 mph - 0.05 in   Light Drizzle
9:16 AM 42.8 °F 40.1 °F 42.8 °F 100% 30.40 in 4.0 mi South 4.6 mph - N/A Rain Light Rain
9:32 AM 42.8 °F 40.1 °F 42.8 °F 100% 30.41 in 2.5 mi Variable 4.6 mph - N/A Rain Rain
9:36 AM 42.8 °F 38.6 °F 42.8 °F 100% 30.41 in 3.0 mi South 6.9 mph - N/A Rain Rain
9:50 AM 42.8 °F 40.1 °F 42.8 °F 100% 30.41 in 4.0 mi Variable 4.6 mph - N/A Rain Light Rain
9:55 AM 42.1 °F 39.2 °F 42.1 °F 100% 30.40 in 3.0 mi SSW 4.6 mph - 0.14 in Rain Light Rain
9:58 AM 42.8 °F 41.1 °F 42.8 °F 100% 30.40 in 3.0 mi Variable 3.5 mph - N/A Rain Light Rain
9:59 AM 42.8 °F 41.1 °F 42.8 °F 100% 30.40 in 4.0 mi Variable 3.5 mph - N/A Rain Light Rain
10:00 AM 42.8 °F 41.1 °F 42.8 °F 100% 30.40 in 4.0 mi SSW 3.5 mph - N/A Rain Light Rain
10:06 AM 42.8 °F 40.1 °F 42.8 °F 100% 30.40 in 4.0 mi South 4.6 mph - N/A Rain Light Rain
10:13 AM 42.8 °F 39.3 °F 42.8 °F 100% 30.40 in 5.0 mi South 5.8 mph - N/A Rain Light Rain
10:18 AM 42.8 °F 39.3 °F 42.8 °F 100% 30.40 in 8.0 mi South 5.8 mph - N/A Rain Light Rain
10:48 AM 42.8 °F 40.1 °F 42.8 °F 100% 30.40 in 10.0 mi South 4.6 mph - N/A   Overcast
10:54 AM 42.8 °F 41.1 °F 42.8 °F 100% 30.40 in 10.0 mi South 3.5 mph - N/A   Light Drizzle
10:55 AM 42.6 °F 40.9 °F 42.4 °F 99% 30.40 in 10.0 mi Variable 3.5 mph - 0.02 in   Light Drizzle
11:14 AM 42.8 °F 40.1 °F 42.8 °F 100% 30.39 in 10.0 mi SSE 4.6 mph - N/A   Overcast
11:18 AM 42.8 °F 40.1 °F 42.8 °F 100% 30.39 in 9.0 mi SSE 4.6 mph - N/A   Light Drizzle
11:30 AM 42.8 °F 39.3 °F 42.8 °F 100% 30.38 in 6.0 mi SE 5.8 mph - N/A   Overcast
11:55 AM 43.2 °F 39.7 °F 43.0 °F 99% 30.36 in 10.0 mi SE 5.8 mph - 0.01 in   Overcast
12:08 PM 44.6 °F 39.7 °F 42.8 °F 93% 30.35 in 10.0 mi SSE 9.2 mph - N/A   Overcast
12:55 PM 46.9 °F - 44.6 °F 92% 30.32 in 10.0 mi South 6.9 mph - N/A   Overcast
1:55 PM 48.2 °F - 44.6 °F 87% 30.31 in 10.0 mi South 5.8 mph - N/A   Overcast
2:55 PM 47.8 °F - 44.6 °F 89% 30.30 in 10.0 mi SSE 10.4 mph - N/A   Overcast
3:55 PM 47.1 °F - 45.5 °F 94% 30.28 in 10.0 mi SSE 12.7 mph - N/A   Overcast
4:16 PM 46.4 °F 41.9 °F 44.6 °F 93% 30.28 in 10.0 mi SSE 9.2 mph - N/A   Overcast
4:55 PM 46.4 °F 41.9 °F 45.3 °F 96% 30.27 in 10.0 mi SSE 9.2 mph - N/A   Overcast
5:55 PM 46.4 °F 41.5 °F 45.9 °F 98% 30.25 in 10.0 mi SSE 10.4 mph - N/A   Overcast
6:23 PM 46.4 °F 41.1 °F 46.4 °F 100% 30.23 in 10.0 mi SSE 11.5 mph - N/A   Overcast
6:55 PM 46.8 °F - 46.6 °F 99% 30.23 in 10.0 mi SSE 10.4 mph - N/A   Overcast
7:55 PM 48.2 °F - 48.0 °F 99% 30.22 in 10.0 mi SSE 12.7 mph 18.4 mph N/A   Overcast
8:22 PM 48.2 °F - 48.2 °F 100% 30.22 in 10.0 mi South 10.4 mph - N/A   Overcast
8:55 PM 49.5 °F - 49.3 °F 99% 30.21 in 10.0 mi South 11.5 mph 21.9 mph N/A   Overcast
9:20 PM 50.0 °F - 50.0 °F 100% 30.21 in 10.0 mi South 11.5 mph 19.6 mph N/A   Overcast
9:50 PM 50.0 °F - 50.0 °F 100% 30.21 in 10.0 mi South 8.1 mph - N/A   Overcast
9:55 PM 50.2 °F - 49.5 °F 97% 30.20 in 10.0 mi South 11.5 mph 16.1 mph N/A   Overcast
10:55 PM 49.8 °F - 48.7 °F 96% 30.18 in 10.0 mi SSE 8.1 mph - N/A   Mostly Cloudy
11:44 PM 50.0 °F - 48.2 °F 94% 30.16 in 10.0 mi SSE 11.5 mph - N/A   Mostly Cloudy
11:55 PM 49.5 °F - 48.2 °F 95% 30.16 in 10.0 mi South 9.2 mph - N/A   Mostly Cloudy